Regional Weather Roundup
Issued by NWS

Home | Current Version | Previous Version | Text Only | Print | Product List | Glossary On
Versions: 1 2 3 4 5 6 7 8 9 10 11 12 13 14 15 16 17 18 19 20 21 22 23 24 25 26 27 28 29 30 31 32 33 34 35 36 37 38 39 40 41 42 43 44 45 46 47 48 49 50
000
ASUS44 KEWX 020211
RWRTX
SOUTH TEXAS REGIONAL WEATHER ROUNDUP
NATIONAL WEATHER SERVICE AUSTIN/SAN ANTONIO TX
900 PM CDT WED APR 01 2015

NOTE: "FAIR" INDICATED FEW OR NO CLOUDS BELOW 12,000 FEET WITH NO
SIGNIFICANT WEATHER AND/OR OBSTRUCTIONS TO VISIBILITY.

* - THESE STATIONS ARE NOT NWS OR FAA STATIONS...AND ARE NOT SUBJECT
    TO NWS AND FAA QUALITY CONTROL.

TXZ171-172-183>190-020300-
TEXAS HILL COUNTRY AND EDWARDS PLATEAU

CITY           SKY/WX    TMP DP  RH WIND       PRES   REMARKS
JUNCTION       CLEAR     74  57  55 S8        29.88R
*LLANO         CLEAR     73  57  56 S7        29.89S HAZE
BURNET         CLEAR     73  58  59 S8        29.89R
*HORSESHOE BAY CLEAR     72  61  67 S6        29.88R
*KERRVILLE     CLEAR     72  64  75 SE9       29.91R
*FREDERICKSBRG CLEAR     70  57  64 SE3       29.90S
*ROCKSPRINGS   NOT AVBL
*BOERNE STAGE  PTCLDY    70  61  73 SE7       29.92R
*CASTROVILLE   PTCLDY    71  66  84 SE5       29.91R
HONDO          PTCLDY    73  66  78 SE12      29.90R
*UVALDE        CLEAR     72  62  71 E5        29.87R
DEL RIO        CLEAR     76  62  62 SE8       29.83R
LAUGHLIN AFB   CLEAR     72  65  79 S7        29.84R
CARRIZO SPRGS  CLEAR     72  64  78 CALM      29.84R
$$

TXZ173-191>194-202-209-217>225-228-020300-
CENTRAL AND SOUTH CENTRAL TEXAS

CITY           SKY/WX    TMP DP  RH WIND       PRES   REMARKS
GEORGETOWN     CLEAR     73  63  68 MISG      29.86S
AUSTIN/BERGSTM PTCLDY    72  64  76 S9        29.90R
AUSTIN/MABRY   CLEAR     74  63  68 S7        29.90R
*AUSTIN/EXEC     N/A     72  64  78 S9        29.90R
*LAGO VISTA    CLEAR     73  61  65 S9        29.90R
SAN MARCOS     CLOUDY    70  66  88 SE10      29.91R THUNDER
NEW BRAUNFELS  CLOUDY    72  70  93 S10       29.90R
RANDOLPH AFB   MOCLDY    68  63  83 SE9       29.91R
PT SAN ANTONIO MOCLDY    72  68  88 SE15      29.88R
SAN ANTONIO    PTCLDY    70  63  78 E8        29.91R
STINSON FIELD  MOCLDY    73  67  81 SE7       29.88S
*PLEASANTON    CLOUDY    73  66  80 SE9       29.89R
*LA GRANGE     PTCLDY    74  69  85 S8        29.91R
*GIDDINGS      PTCLDY    72  64  77 S6        29.95R
*GONZALES      CLOUDY    74  68  82 S9        29.91R
$$

TXZ163>164-176>182-195>201-210>213-226-227-235-020300-
SOUTHEAST TEXAS

CITY           SKY/WX    TMP DP  RH WIND       PRES   REMARKS
COLLEGE STN    PTCLDY    68  65  90 SE9       29.92R
*BRYAN         CLEAR     65  65  97 SE8       29.93S
*CALDWELL      PTCLDY    66  66 100 SE9       29.94R
*CROCKETT      PTCLDY    70  70 100 S8        29.96F FOG
*BRENHAM       CLEAR     73  67  83 SE7       29.94R
HUNTSVILLE     RAIN      68  64  87 VRB3      29.96R FOG
CONROE         MOCLDY    70  67  90 SE5       29.97R
HOUSTON BUSH   MOCLDY    73  66  78 S8        29.95R
HOUSTON HOBBY  MOCLDY    71  67  87 S8        29.96R
*HOUSTON SW AP PTCLDY    71  69  95 CALM      29.97R
PEARLAND       PTCLDY    72  67  84 S6        29.98R
HOUSTON HOOKS  PTCLDY    73  65  75 S7        29.95R
ELLINGTON FLD  NOT AVBL
SUGAR LAND     PTCLDY    71  65  81 S9        29.95R
*HOUSTON EXEC  MOCLDY    72  68  88 S9        29.96R
*CLEVELAND MUN PTCLDY    69  66  89 S5        29.98R
*WHARTON       MOCLDY    70  66  89 SE8       29.96R
*COLUMBUS      FAIR      71  67  88 S10       29.93R
$$

TXZ214>216-236>238-020300-
THE UPPER TEXAS COAST

CITY           SKY/WX    TMP DP  RH WIND       PRES   REMARKS
*ORANGE        CLOUDY    71  64  80 SE6       30.00R
PORT ARTHUR    CLOUDY    71  67  87 SE10      29.98R
GALVESTON      PTCLDY    70  68  93 SE9       29.98R
ANGLETON       PTCLDY    69  67  93 S8        29.96R
*BAY CITY      MOCLDY    70  70  98 SE7       29.95R
PALACIOS       MOCLDY    72  69  90 SE14      29.94R
$$

TXZ229>234-239>247-020300-
TEXAS COASTAL BEND AND RIO GRANDE PLAINS

CITY           SKY/WX    TMP DP  RH WIND       PRES   REMARKS
VICTORIA       CLOUDY    72  68  87 SE10      29.93S
*BEEVILLE      PTCLDY    71  70  97 SE10      29.90S
ROCKPORT       PTCLDY    71  68  90 SE13      29.92R
*PORT ARANSAS  PTCLDY    69  68  97 SE14      29.91R
*PORT LAVACA   MOCLDY    71  68  91 SE8       29.94R
*INGLESIDE     PTCLDY    72  69  91 SE14G23   29.92R
CORPUS CHRISTI PTCLDY    72  68  87 SE16      29.90R
CORPUS NAS     PTCLDY    70  70 100 SE15      29.91R
*ROBSTOWN      PTCLDY    73  69  87 MISG      29.91R
ALICE          CLEAR     73  68  84 SE13      29.88R
KINGSVILLE NAS PTCLDY    71  70  96 SE10      29.90R
COTULLA        CLEAR     76  68  76 SE10      29.86R
*FAITH RANCH   CLEAR     75  64  69 SE5       29.85R
LAREDO         CLEAR     78  67  68 SE9       29.86R
$$

TXZ248>255-020300-
DEEP SOUTH TEXAS

CITY           SKY/WX    TMP DP  RH WIND       PRES   REMARKS
BROWNSVILLE    MOCLDY    73  70  90 SE14      29.90R
PORT ISABEL    MOCLDY    73  70  90 SE14      29.89R
*SOUTH PADRE   CLEAR     70  70 100 S13       29.89S
HARLINGEN      CLEAR     73  68  84 SE9       29.89R
*HEBBRONVILLE    N/A     74  67  79 SE10      29.89R
MCALLEN        CLEAR     77  67  71 SE10      29.89R
*WESLACO       CLEAR     74  66  76 SE10      29.89R
FALFURRIAS     CLEAR     74  68  79 SE8       29.89R
EDINBURG       CLEAR     76  67  75 SE7       29.89R
*ZAPATA        CLEAR     78  67  68 SE8       29.85R
$$

TXZ213>215-236>238-242>244-246-247-251-254-255-020300-
CMAN STATIONS

STATION/POSITION TIME  TEMP    WIND        PRES    WAVE
                       AIR SEA DIR/SP/G            HT/PER
                 (UTC) (F)     (DEG/KT/KT) (MB)    (FT/S)
$$

GMZ080-GMZ150>470-020300-
OFFSHORE BUOY REPORTS

STATION/POSITION TIME  TEMP    WIND        PRES    WAVE
                       AIR SEA DIR/SP/G            HT/PER
                 (UTC) (F)     (DEG/KT/KT) (MB)    (FT/S)
$$


USA.gov is the U.S. government's official web portal to all federal, state and local government web resources and services.